Radiation Dose at Monitoring Post of Fukushima Daini Nuclear Power Station
Date,Time,MP-1(microSv/h),MP-2(microSv/h),MP-3(microSv/h),MP-4(microSv/h),MP-5(microSv/h),MP-6(microSv/h),MP-7(microSv/h),Wind Direction,Wind Velocity(m/s),Rain
2021/05/25,00:00,0.166,0.150,0.238,0.231,0.232,0.129,0.081,south,1.2,No
2021/05/25,00:10,0.164,0.149,0.237,0.230,0.232,0.129,0.081,south-southeast,0.8,No
2021/05/25,00:20,0.166,0.148,0.238,0.230,0.233,0.130,0.081,south-southeast,1.1,No
2021/05/25,00:30,0.164,0.149,0.238,0.230,0.233,0.130,0.080,south-southeast,1.1,No
2021/05/25,00:40,0.165,0.150,0.238,0.231,0.232,0.129,0.080,south-southeast,1.6,No
2021/05/25,00:50,0.165,0.149,0.237,0.229,0.232,0.128,0.079,south-southeast,2.0,No
2021/05/25,01:00,0.165,0.150,0.238,0.231,0.231,0.129,0.080,south-southeast,0.7,No
2021/05/25,01:10,0.165,0.150,0.238,0.230,0.233,0.128,0.081,south-southeast,1.2,No
2021/05/25,01:20,0.165,0.151,0.238,0.230,0.231,0.130,0.080,-,CALM,No
2021/05/25,01:30,0.166,0.149,0.237,0.229,0.233,0.130,0.080,-,CALM,No
2021/05/25,01:40,0.164,0.150,0.238,0.231,0.230,0.129,0.080,southwest,1.0,No
2021/05/25,01:50,0.166,0.149,0.238,0.230,0.234,0.129,0.080,south,1.3,No
2021/05/25,02:00,0.165,0.150,0.236,0.230,0.232,0.129,0.080,-,CALM,No
2021/05/25,02:10,0.166,0.150,0.239,0.232,0.232,0.129,0.080,south,0.6,No
2021/05/25,02:20,0.165,0.150,0.237,0.230,0.234,0.129,0.080,south-southwest,0.7,No
2021/05/25,02:30,0.165,0.150,0.239,0.231,0.231,0.131,0.081,south,0.9,No
2021/05/25,02:40,0.166,0.150,0.237,0.229,0.234,0.129,0.080,-,CALM,No
2021/05/25,02:50,0.165,0.150,0.239,0.230,0.232,0.129,0.080,-,CALM,No
2021/05/25,03:00,0.166,0.150,0.237,0.231,0.232,0.129,0.081,-,CALM,No
2021/05/25,03:10,0.165,0.149,0.238,0.231,0.232,0.129,0.081,-,CALM,No
2021/05/25,03:20,0.166,0.151,0.238,0.230,0.232,0.130,0.080,west-northwest,2.6,No
2021/05/25,03:30,0.165,0.150,0.239,0.231,0.234,0.129,0.081,northwest,3.2,No
2021/05/25,03:40,0.165,0.150,0.237,0.230,0.231,0.130,0.081,west,1.5,No
2021/05/25,03:50,0.166,0.151,0.238,0.230,0.233,0.129,0.081,west,1.4,No
2021/05/25,04:00,0.166,0.151,0.239,0.231,0.231,0.130,0.080,-,CALM,No
2021/05/25,04:10,0.167,0.150,0.239,0.230,0.234,0.130,0.081,-,CALM,No
2021/05/25,04:20,0.166,0.152,0.238,0.231,0.233,0.130,0.081,-,CALM,No
2021/05/25,04:30,0.165,0.150,0.239,0.230,0.234,0.129,0.080,-,CALM,No
2021/05/25,04:40,0.164,0.150,0.237,0.231,0.233,0.129,0.081,northeast,0.8,No
2021/05/25,04:50,0.165,0.150,0.237,0.230,0.233,0.128,0.081,north-northeast,2.1,No
2021/05/25,05:00,0.165,0.149,0.237,0.229,0.233,0.129,0.081,northeast,2.6,No
2021/05/25,05:10,0.165,0.151,0.239,0.230,0.233,0.129,0.080,north-northeast,2.1,No
2021/05/25,05:20,0.165,0.150,0.236,0.232,0.234,0.129,0.081,north-northeast,2.9,No
2021/05/25,05:30,0.166,0.151,0.239,0.229,0.233,0.130,0.080,north,2.9,No
2021/05/25,05:40,0.165,0.150,0.236,0.230,0.234,0.129,0.080,north,3.5,No
2021/05/25,05:50,0.167,0.150,0.239,0.229,0.231,0.130,0.081,north-northeast,2.9,No
2021/05/25,06:00,0.166,0.150,0.238,0.231,0.233,0.129,0.081,north,3.1,No
2021/05/25,06:10,0.165,0.150,0.238,0.230,0.231,0.130,0.081,north,2.8,No
2021/05/25,06:20,0.165,0.150,0.237,0.230,0.233,0.130,0.080,north-northwest,2.4,No
2021/05/25,06:30,0.166,0.151,0.237,0.231,0.233,0.129,0.080,northwest,1.3,No
2021/05/25,06:40,0.165,0.149,0.238,0.228,0.231,0.129,0.080,north,0.8,No
2021/05/25,06:50,0.165,0.149,0.236,0.231,0.233,0.129,0.080,northwest,1.1,No
2021/05/25,07:00,0.166,0.150,0.237,0.229,0.231,0.129,0.080,-,CALM,No
2021/05/25,07:10,0.164,0.149,0.237,0.230,0.231,0.129,0.081,north,1.2,No
2021/05/25,07:20,0.166,0.149,0.236,0.230,0.233,0.130,0.079,north-northeast,1.0,No
2021/05/25,07:30,0.165,0.150,0.234,0.229,0.231,0.129,0.080,northeast,2.2,No
2021/05/25,07:40,0.163,0.150,0.237,0.228,0.232,0.129,0.080,northeast,1.3,No
2021/05/25,07:50,0.166,0.148,0.238,0.230,0.234,0.130,0.081,northeast,2.6,No
2021/05/25,08:00,0.166,0.148,0.237,0.231,0.231,0.129,0.080,north,2.5,No
2021/05/25,08:10,0.163,0.150,0.235,0.230,0.230,0.129,0.080,northeast,2.7,No
2021/05/25,08:20,0.165,0.149,0.234,0.229,0.230,0.128,0.080,northwest,3.2,No
2021/05/25,08:30,0.166,0.150,0.234,0.228,0.233,0.130,0.079,northwest,3.6,No
2021/05/25,08:40,0.165,0.149,0.234,0.227,0.232,0.129,0.079,northwest,3.1,No
2021/05/25,08:50,0.164,0.148,0.236,0.228,0.231,0.129,0.081,north,1.9,No
2021/05/25,09:00,0.163,0.149,0.235,0.228,0.230,0.129,0.080,west-northwest,0.8,No
2021/05/25,09:10,0.163,0.149,0.236,0.228,0.230,0.129,0.080,northwest,4.8,No
2021/05/25,09:20,0.165,0.149,0.236,0.229,0.230,0.129,0.080,west-northwest,4.5,No
2021/05/25,09:30,0.165,0.148,0.237,0.228,0.230,0.130,0.080,-,CALM,No
2021/05/25,09:40,0.165,0.149,0.236,0.229,0.229,0.129,0.079,east-southeast,3.9,No
2021/05/25,09:50,0.164,0.149,0.237,0.228,0.230,0.128,0.080,east-southeast,3.6,No
2021/05/25,10:00,0.164,0.147,0.237,0.229,0.231,0.128,0.079,east-southeast,3.9,No
2021/05/25,10:10,0.163,0.149,0.236,0.228,0.234,0.128,0.080,east-southeast,3.2,No
2021/05/25,10:20,0.163,0.150,0.236,0.229,0.234,0.129,0.081,east-southeast,3.2,No
2021/05/25,10:30,0.164,0.151,0.236,0.230,0.233,0.129,0.080,east-southeast,2.7,No
2021/05/25,10:40,0.166,0.150,0.238,0.233,0.231,0.129,0.080,east-southeast,1.9,No
2021/05/25,10:50,0.165,0.149,0.241,0.232,0.231,0.128,0.080,east,1.8,No
2021/05/25,11:00,0.164,0.149,0.240,0.231,0.234,0.129,0.081,east-northeast,2.1,No
2021/05/25,11:10,0.164,0.152,0.239,0.229,0.234,0.128,0.081,northeast,1.8,No
2021/05/25,11:20,0.164,0.151,0.237,0.229,0.233,0.129,0.081,east,2.1,No
2021/05/25,11:30,0.167,0.150,0.235,0.229,0.231,0.129,0.079,northeast,1.7,No
2021/05/25,11:40,0.165,0.149,0.241,0.232,0.229,0.128,0.080,northeast,1.2,No
2021/05/25,11:50,0.165,0.150,0.240,0.232,0.230,0.128,0.081,east-northeast,1.7,No
2021/05/25,12:00,0.165,0.151,0.237,0.231,0.235,0.129,0.080,east-northeast,1.9,No
2021/05/25,12:10,0.167,0.150,0.237,0.230,0.233,0.130,0.080,southeast,2.5,No
2021/05/25,12:20,0.166,0.150,0.240,0.232,0.230,0.129,0.080,east,2.6,No
2021/05/25,12:30,0.163,0.152,0.240,0.233,0.229,0.129,0.080,southeast,3.0,No
2021/05/25,12:40,0.164,0.150,0.238,0.230,0.231,0.130,0.081,east-southeast,2.0,No
2021/05/25,12:50,0.165,0.150,0.238,0.230,0.234,0.130,0.080,east-southeast,1.8,No
2021/05/25,13:00,0.167,0.148,0.237,0.229,0.233,0.129,0.080,east,3.0,No
2021/05/25,13:10,0.166,0.149,0.237,0.232,0.232,0.128,0.080,east,2.7,No
2021/05/25,13:20,0.166,0.149,0.237,0.232,0.232,0.129,0.081,east-southeast,3.9,No
2021/05/25,13:30,0.164,0.150,0.238,0.232,0.231,0.129,0.080,east-southeast,2.5,No
2021/05/25,13:40,0.164,0.150,0.241,0.230,0.231,0.129,0.081,east,3.6,No
2021/05/25,13:50,0.162,0.151,0.239,0.230,0.231,0.130,0.080,east-southeast,3.4,No
2021/05/25,14:00,0.164,0.151,0.240,0.230,0.230,0.130,0.080,south-southeast,3.8,No
2021/05/25,14:10,0.164,0.150,0.239,0.230,0.230,0.131,0.080,southeast,3.1,No
2021/05/25,14:20,0.164,0.148,0.238,0.231,0.228,0.130,0.080,southeast,3.9,No
2021/05/25,14:30,0.164,0.148,0.237,0.234,0.231,0.129,0.081,southeast,3.0,No
2021/05/25,14:40,0.164,0.149,0.237,0.234,0.230,0.130,0.080,south-southeast,3.5,No
2021/05/25,14:50,0.165,0.152,0.238,0.232,0.231,0.129,0.081,south-southeast,2.9,No
2021/05/25,15:00,0.164,0.152,0.237,0.232,0.231,0.130,0.080,south-southeast,3.6,No
2021/05/25,15:10,0.165,0.150,0.241,0.229,0.232,0.130,0.081,south-southeast,3.7,No
2021/05/25,15:20,0.167,0.150,0.241,0.233,0.233,0.131,0.080,south-southeast,4.9,No
2021/05/25,15:30,0.166,0.152,0.239,0.234,0.236,0.129,0.080,south-southeast,5.1,No
2021/05/25,15:40,0.165,0.150,0.241,0.232,0.234,0.130,0.081,south-southeast,3.5,No
2021/05/25,15:50,0.166,0.150,0.240,0.230,0.234,0.130,0.080,southeast,4.2,No
2021/05/25,16:00,0.166,0.152,0.239,0.235,0.232,0.130,0.080,south-southeast,5.2,No
2021/05/25,16:10,0.166,0.151,0.238,0.233,0.231,0.129,0.081,south-southeast,5.1,No
2021/05/25,16:20,0.165,0.151,0.241,0.231,0.235,0.130,0.081,south-southeast,6.0,No
2021/05/25,16:30,0.167,0.151,0.239,0.235,0.235,0.129,0.080,south-southeast,6.6,No
2021/05/25,16:40,0.165,0.151,0.241,0.233,0.232,0.130,0.080,south-southeast,7.2,No
2021/05/25,16:50,0.166,0.151,0.241,0.234,0.235,0.130,0.081,south-southeast,7.9,No
2021/05/25,17:00,0.167,0.151,0.239,0.234,0.232,0.130,0.081,south-southeast,9.0,Yes
2021/05/25,17:10,0.167,0.152,0.242,0.234,0.236,0.130,0.083,south-southeast,10.1,Yes
2021/05/25,17:20,0.171,0.154,0.244,0.237,0.237,0.135,0.085,south-southeast,10.1,Yes
2021/05/25,17:30,0.171,0.155,0.245,0.237,0.239,0.136,0.087,south,7.1,Yes
2021/05/25,17:40,0.175,0.158,0.247,0.240,0.240,0.139,0.089,south,7.3,Yes
2021/05/25,17:50,0.173,0.158,0.248,0.239,0.241,0.139,0.090,south,7.9,Yes
2021/05/25,18:00,0.174,0.159,0.245,0.240,0.240,0.139,0.089,south,8.4,Yes
2021/05/25,18:10,0.173,0.156,0.247,0.238,0.240,0.138,0.089,south,6.4,Yes
2021/05/25,18:20,0.173,0.156,0.245,0.238,0.239,0.139,0.088,south,6.9,Yes
2021/05/25,18:30,0.172,0.157,0.244,0.237,0.238,0.137,0.089,south,6.7,Yes
2021/05/25,18:40,0.173,0.157,0.244,0.239,0.240,0.139,0.090,south-southwest,6.0,Yes
2021/05/25,18:50,0.172,0.156,0.243,0.237,0.239,0.137,0.089,south-southwest,5.8,No
2021/05/25,19:00,0.172,0.155,0.243,0.236,0.238,0.137,0.088,south-southwest,5.9,No
2021/05/25,19:10,0.171,0.156,0.241,0.236,0.236,0.135,0.087,south-southwest,7.0,No
2021/05/25,19:20,0.169,0.155,0.242,0.235,0.235,0.135,0.086,south-southwest,6.6,Yes
2021/05/25,19:30,0.172,0.157,0.243,0.236,0.237,0.136,0.087,southwest,4.7,Yes
2021/05/25,19:40,0.172,0.157,0.244,0.236,0.238,0.137,0.090,southwest,2.9,Yes
2021/05/25,19:50,0.171,0.157,0.242,0.236,0.237,0.136,0.088,southwest,2.2,No
2021/05/25,20:00,0.170,0.155,0.242,0.234,0.237,0.134,0.087,south-southwest,1.8,Yes
2021/05/25,20:10,0.172,0.157,0.243,0.237,0.238,0.140,0.091,west-southwest,4.4,Yes
2021/05/25,20:20,0.174,0.159,0.246,0.239,0.240,0.141,0.093,southwest,4.2,Yes
2021/05/25,20:30,0.175,0.162,0.246,0.240,0.240,0.142,0.093,south-southwest,3.1,Yes
2021/05/25,20:40,0.175,0.162,0.247,0.241,0.244,0.144,0.096,south-southwest,2.8,Yes
2021/05/25,20:50,0.179,0.163,0.247,0.242,0.242,0.144,0.095,south,3.7,Yes
2021/05/25,21:00,0.176,0.163,0.248,0.240,0.244,0.143,0.095,south,4.4,Yes
2021/05/25,21:10,0.175,0.160,0.245,0.240,0.240,0.141,0.093,south,4.6,No
2021/05/25,21:20,0.173,0.158,0.244,0.236,0.240,0.139,0.092,south-southwest,5.7,No
2021/05/25,21:30,0.173,0.158,0.243,0.237,0.238,0.139,0.090,west-southwest,2.8,Yes
2021/05/25,21:40,0.175,0.160,0.242,0.235,0.240,0.141,0.092,southwest,5.1,Yes
2021/05/25,21:50,0.174,0.161,0.245,0.238,0.241,0.142,0.093,west-southwest,2.8,Yes
2021/05/25,22:00,0.176,0.162,0.243,0.237,0.243,0.141,0.094,west,2.7,Yes
2021/05/25,22:10,0.176,0.162,0.246,0.239,0.243,0.143,0.095,west,3.7,Yes
2021/05/25,22:20,0.176,0.161,0.245,0.239,0.243,0.142,0.095,west-northwest,4.9,Yes
2021/05/25,22:30,0.175,0.162,0.246,0.239,0.243,0.142,0.095,west-northwest,3.7,Yes
2021/05/25,22:40,0.178,0.162,0.245,0.239,0.242,0.143,0.096,west-northwest,3.2,Yes
2021/05/25,22:50,0.177,0.164,0.246,0.240,0.244,0.143,0.096,northwest,2.3,Yes
2021/05/25,23:00,0.178,0.163,0.247,0.240,0.244,0.145,0.096,northwest,3.1,Yes
2021/05/25,23:10,0.177,0.164,0.247,0.240,0.244,0.143,0.097,northwest,2.2,Yes
2021/05/25,23:20,0.178,0.163,0.248,0.241,0.243,0.143,0.097,northwest,1.8,Yes
2021/05/25,23:30,0.174,0.162,0.245,0.236,0.242,0.140,0.095,north-northwest,3.3,Yes
2021/05/25,23:40,0.174,0.159,0.244,0.237,0.241,0.140,0.093,north,2.7,No
2021/05/25,23:50,0.172,0.158,0.243,0.234,0.240,0.137,0.091,north-northeast,2.8,Yes
